Location: Chuathbaluk
(61.5726°N, 159.2454°W)
Time: 12:32:03
(UTC+00:00)

N. Korean satellite - Pass Details

Date: 05 November 2020
Orbit: 453 x 503 km, 97.2° (Epoch: 04 December)

Event Time Altitude Azimuth Distance (km) Brightness Sun altitude
Rises 15:31:03 0° 22° (NNE) 2,486 10.5 -19.9°
Reaches altitude 10° 15:33:23 10° 37° (NE) 1,606 9.7 -19.6°
Maximum altitude 15:36:12 23° 92° (E) 1,020 9.1 -19.3°
Drops below altitude 10° 15:39:00 10° 147° (SSE) 1,601 9.6 -18.9°
Sets 15:41:20 0° 163° (SSE) 2,475 10.4 -18.6°
